Location: Dennehotso
(36.8461°N, 109.8435°W)
Time: 00:43:11
(UTC+00:00)

N. Korean satellite - Pass Details

Date: 09 March 2021
Orbit: 453 x 499 km, 97.2° (Epoch: 11 April)

Event Time Altitude Azimuth Distance (km) Brightness Sun altitude
Rises 12:10:07 0° 22° (NNE) 2,549 10.7 -18.5°
Reaches altitude 10° 12:12:20 10° 33° (NNE) 1,673 9.8 -18.0°
Maximum altitude 12:15:35 31° 97° (E) 874 8.5 -17.4°
Drops below altitude 10° 12:18:50 10° 162° (SSE) 1,682 9.4 -16.7°
Sets 12:21:04 0° 172° (S) 2,565 10.3 -16.3°
